sat.trackr.live / text

‹ back to catalog

GOKTURK 2

NORAD 39030 · 2012-073A

PAYLOAD ACTIVE UNKNOWN

§ Identity

Operator
Country
TURK
Launch date
2012-12-18
Launch site
JSC
Launch vehicle
Mass (kg)
RCS (m²)
1.65

Purposes: earth_obs

External: N2YO · Heavens-Above · Gunter

§ Orbital elements

Epoch: 2026-05-25T03:50:07.037952Z

Period
97.59 min
Inclination
97.6838°
Eccentricity
0.0002144
Mean motion
14.75514474 rev/d
Perigee alt
642.0 km
Apogee alt
645.0 km
Semi-major
7,021.7 km
B*
3.6810e-6
RAAN
343.7446°
Arg perigee
75.7081°
Mean anomaly
284.4367°
Rev number
72,111

§ Raw data

GOKTURK 21 39030U 12073A   26145.15980368 -.00000022  00000+0  36810-5 0  99932 39030  97.6838 343.7446 0002144  75.7081 284.4367 14.75514474721116

JSON: /api/v1/satellites/39030 · /tle

For live sub-satellite position, see the globe view (requires WebGL).

§ Visibility from observer

Set your observer location to see the next 7 days of passes ≥ 10°. The values pass through the URL so the page stays shareable.

No JS? Fill the form by hand. The geolocation button needs JavaScript.